Погода в Соколовом

Россия / Саратовская область     51°34′10″N   45°50′06″E
темп.,
°C
ветер,
м/с
пор.,
м/с
влажн.,
%
обл.,
%
осадки,
мм/ч
давл.,
гПа
погр.,
м
12 мая, ср
ср1201:00+8с2272100 0.0 102518
04:00+7с338898 0.0 102333
07:00+9ссв2999100 4.3 1022369
10:00+12в61297100 7.6 1020586
13:00+14в7118495 0.1 1019682
16:00+18ююв697558 0.6 10201093
19:00+16ю37830 0.1 1020452
22:00+12сз11905 0.1 102110
13 мая, чт
чт1301:00+12с32915 0.0 102023
04:00+12св4993100 0.0 1019182
07:00+13всв5986100 0.0 1018266
10:00+16вюв6108591 1.9 1018531
13:00+20юв687253 0.4 10181074
16:00+21юв586936 1.4 1018855
19:00+19юв237797 1.3 101854
22:00+17ю11804 1.3 101811
14 мая, пт
пт1401:00+16вюв128296 0.0 101911
04:00+15всв2285100 0.0 101911
07:00+16в379084 0.0 1020163
10:00+20юв585899 0.0 1019375
13:00+23ююв694810 0.0 1020629
16:00+25ююв69460 0.0 1019973
19:00+23ююв39595 0.0 1018213
22:00+18юв41264100 0.0 1019179
15 мая, сб
сб1501:00+16юв366210 0.0 101980
04:00+15юв335992 0.0 101927
07:00+15юв366016 0.0 1020117
10:00+20юв511445 0.0 1019369
13:00+25ююв711395 0.0 1019818
16:00+27ююв510395 0.0 10181889
19:00+23юв410530 0.0 1017201
22:00+18юв33600 0.0 101739
16 мая, вс
вс1601:00+17юв33620 0.0 101739
04:00+15юв33590 0.0 101722
07:00+16юв246221 0.0 101798
10:00+21ююв4750100 0.0 1017276
13:00+25ююв474174 0.0 1017546
16:00+27ю48360 0.0 10161383
19:00+25вюв22484 0.0 101515
22:00+20юв22535 0.0 101511